TimeSAST,TemperatureF,Dew PointF,Humidity,Sea Level PressureIn,VisibilityMPH,Wind Direction,Wind SpeedMPH,Gust SpeedMPH,PrecipitationIn,Events,Conditions,WindDirDegrees,DateUTC
12:00 AM,69.8,39.2,33,30.01,-9999.0,SW,11.5,-,N/A,,Unknown,220,2012-11-12 22:00:00
1:00 AM,64.4,41.0,42,30.04,-9999.0,SW,2.3,-,N/A,,Clear,230,2012-11-12 23:00:00
2:00 AM,65,43,33,,25,SW,13.8,,,,,220,2012-11-13 00:00:00
2:00 AM,64.4,41.0,42,30.04,-9999.0,SW,12.7,-,N/A,,Clear,220,2012-11-13 00:00:00
3:00 AM,60.8,37.4,42,30.04,-9999.0,SW,5.8,-,N/A,,Clear,220,2012-11-13 01:00:00
4:00 AM,59.0,33.8,39,30.04,-9999.0,SSW,10.4,-,N/A,,Clear,210,2012-11-13 02:00:00
5:00 AM,57,39,39,,25,SSW,6.9,,,,,210,2012-11-13 03:00:00
5:00 AM,57.2,37.4,48,30.04,-9999.0,SSW,6.9,-,N/A,,Clear,210,2012-11-13 03:00:00
6:00 AM,57.2,39.2,51,30.06,-9999.0,SSW,9.2,-,N/A,,Clear,210,2012-11-13 04:00:00
7:00 AM,59.0,39.2,48,30.09,-9999.0,SSW,10.4,-,N/A,,Clear,210,2012-11-13 05:00:00
8:00 AM,63,41,33,,25,SSW,6.9,,,,,200,2012-11-13 06:00:00
8:00 AM,62.6,41.0,45,30.09,-9999.0,SSW,6.9,-,N/A,,Clear,200,2012-11-13 06:00:00
8:50 AM,66.2,41.0,40,30.12,-9999.0,SSW,9.2,-,N/A,,Clear,200,2012-11-13 06:50:00
9:00 AM,64.4,39.2,40,30.12,-9999.0,SSW,9.2,-,N/A,,Clear,200,2012-11-13 07:00:00
10:00 AM,69.8,37.4,31,30.09,-9999.0,South,4.6,-,N/A,,Clear,180,2012-11-13 08:00:00
10:32 AM,73.4,37.4,27,30.09,-9999.0,SW,5.8,-,N/A,,Clear,220,2012-11-13 08:32:00
11:00 AM,74,36,15,,25,SSW,8.1,,,,,210,2012-11-13 09:00:00
11:00 AM,73.4,35.6,25,30.09,-9999.0,SSW,6.9,-,N/A,,Clear,210,2012-11-13 09:00:00
11:44 AM,77.0,33.8,21,30.09,-9999.0,SW,6.9,-,N/A,,Clear,220,2012-11-13 09:44:00
12:00 PM,78.8,33.8,20,30.06,-9999.0,WSW,5.8,-,N/A,,Clear,240,2012-11-13 10:00:00
1:00 PM,78.8,30.2,17,30.06,-9999.0,SW,6.9,-,N/A,,Clear,220,2012-11-13 11:00:00
2:00 PM,83,30,7,,25,SSW,6.9,,,,,200,2012-11-13 12:00:00
2:00 PM,82.4,30.2,15,30.06,-9999.0,SSW,6.9,-,N/A,,Clear,200,2012-11-13 12:00:00
3:00 PM,84.2,26.6,12,30.04,-9999.0,SSW,5.8,-,N/A,,Clear,210,2012-11-13 13:00:00
4:00 PM,84.2,24.8,11,30.01,-9999.0,South,6.9,-,N/A,,Clear,190,2012-11-13 14:00:00
5:00 PM,86,21,4,,25,SSW,6.9,,,,,210,2012-11-13 15:00:00
5:00 PM,84.2,21.2,10,29.98,-9999.0,SSW,6.9,-,N/A,,Clear,210,2012-11-13 15:00:00
6:00 PM,84.2,24.8,11,29.98,-9999.0,SSW,6.9,-,N/A,,Clear,200,2012-11-13 16:00:00
7:00 PM,80.6,30.2,16,30.01,-9999.0,SW,6.9,-,N/A,,Clear,230,2012-11-13 17:00:00
8:00 PM,74,33,13,,25,WSW,5.8,,,,,240,2012-11-13 18:00:00
8:00 PM,73.4,32.0,22,30.01,-9999.0,WSW,4.6,-,N/A,,Clear,240,2012-11-13 18:00:00
9:00 PM,69.8,35.6,28,30.01,-9999.0,West,5.8,-,N/A,,Unknown,270,2012-11-13 19:00:00
10:00 PM,66.2,35.6,32,30.04,-9999.0,West,5.8,-,N/A,,Unknown,280,2012-11-13 20:00:00
11:00 PM,67,35,20,,,WNW,6.9,,,,,290,2012-11-13 21:00:00
11:00 PM,66.2,33.8,30,30.04,-9999.0,WNW,6.9,-,N/A,,Unknown,290,2012-11-13 21:00:00